Wind_Speed
69 70 64 55 57 59 59 59 56 52 49 48 44 46 42 37 37 37 33 30 30 32 27 24 21 24 28 29 32 35 35 35 33 32 32 35 33 32 27 25 27 31 34 37
72 64 56 60 66 62 59 58 53 54 53 49 47 45 45 37 35 35 29 30 33 26 25 20 23 25 28 31 36 40 36 32 25 27 28 32 31 28 25 28 29 31 34 37
70 61 62 64 64 64 62 60 54 54 51 48 51 48 41 34 32 30 31 29 30 25 19 21 23 24 28 33 35 33 36 27 24 23 26 29 26 25 27 29 30 33 34 33
68 62 65 67 65 65 63 60 58 56 53 51 47 49 41 30 30 32 29 30 25 17 19 22 23 25 28 33 32 27 23 23 20 22 26 23 22 25 28 28 31 31 30 31
58 64 64 65 64 65 59 60 61 61 57 55 51 49 25 31 30 26 28 27 16 16 20 24 24 26 30 27 23 21 21 19 18 23 23 20 21 25 26 28 27 29 28 26
56 57 60 61 61 63 60 62 64 61 58 61 46 46 24 24 20 22 21 17 16 15 22 20 22 24 19 17 17 19 18 17 19 21 18 19 22 23 24 24 25 25 25 22
45 46 53 56 60 61 62 63 62 62 65 53 46 46 20 15 16 26 21 18 14 15 16 18 20 19 15 14 18 18 16 16 18 18 18 20 21 22 22 21 23 24 22 17
24 31 48 51 56 59 61 60 61 61 60 53 52 50 32 16 23 14 18 17 12 14 15 19 20 18 16 17 17 14 13 15 16 16 18 19 21 21 19 21 23 20 17 14
22 25 34 42 50 58 56 62 57 61 59 58 52 47 40 25 26 8 12 8 5 9 15 15 13 9 12 12 11 12 12 14 15 15 17 18 19 20 20 23 17 14 11 11
26 26 23 26 45 55 55 55 56 60 59 59 52 48 41 28 28 21 18 9 10 15 9 11 11 7 8 9 10 10 11 13 13 15 15 16 18 19 22 17 13 10 8 8
20 19 26 33 35 46 53 55 56 59 60 56 51 49 42 25 23 19 19 8 10 7 9 12 11 9 10 10 9 9 11 11 12 12 13 16 18 20 15 13 9 8 6 5
21 21 20 25 42 42 49 57 59 61 60 56 52 48 30 34 30 24 17 10 8 2 9 12 11 10 9 10 8 8 10 12 11 11 14 16 17 13 12 8 7 7 5 4
12 19 15 12 38 45 49 56 61 60 60 57 53 37 32 28 26 19 16 13 5 7 12 12 8 10 11 9 8 10 11 9 10 12 15 16 11 9 9 6 6 7 5 2
13 14 16 11 28 48 47 54 62 60 61 55 54 36 40 30 28 26 19 13 10 9 13 14 11 13 11 9 8 9 9 8 10 11 12 9 10 9 7 5 6 5 4 3
14 8 6 7 24 44 46 49 65 65 61 60 55 45 41 35 28 18 15 15 11 10 12 10 10 12 9 9 7 8 6 9 8 10 10 11 11 9 6 5 5 2 4 4
12 4 11 5 13 36 48 43 61 66 62 62 57 52 39 29 33 24 20 17 14 16 14 9 10 11 9 7 5 5 7 8 7 10 11 10 10 4 5 4 5 3 2 5
12 12 8 6 6 23 43 40 56 64 61 61 59 54 35 35 37 33 28 26 17 16 13 11 11 9 8 5 4 5 8 6 6 9 9 9 5 4 2 1 0 3 3 5
8 4 6 11 10 17 31 39 41 61 56 60 59 53 50 47 43 35 44 32 22 21 18 12 9 7 7 6 3 4 6 4 6 9 8 5 5 4 6 6 5 3 3 6
6 3 9 4 12 17 31 37 37 60 56 55 49 60 54 47 43 30 27 29 26 23 21 14 8 8 7 6 2 3 3 2 4 6 7 7 5 4 7 10 8 3 3 6
1 3 7 8 7 20 22 29 49 56 50 44 60 55 56 43 37 38 30 30 23 27 16 11 10 9 9 6 1 1 1 1 3 5 8 9 8 6 6 8 7 11 5 6
8 7 5 7 8 30 17 39 54 54 45 52 63 60 52 42 35 40 37 30 27 24 18 14 11 11 11 7 3 2 1 1 3 5 8 8 10 9 7 5 7 7 6 8
9 3 1 4 17 8 25 33 52 51 47 55 64 61 50 46 39 39 33 34 32 27 20 15 12 12 12 9 4 3 3 1 2 4 6 6 7 10 13 10 6 8 9 10
8 12 11 8 12 9 26 37 52 43 48 46 64 54 43 32 42 47 43 38 36 29 22 16 12 11 13 12 7 4 4 2 3 4 4 5 6 7 11 15 15 16 14 8
5 9 6 7 10 18 33 40 49 57 40 64 54 43 44 39 40 36 33 30 30 29 25 19 14 12 12 15 11 6 4 4 4 4 4 6 5 7 11 17 18 18 15 9
8 3 3 3 8 11 31 33 42 32 39 61 56 46 40 35 39 41 33 30 30 29 30 24 17 13 12 13 15 10 6 3 4 5 6 7 7 7 10 14 16 20 22 20
10 7 8 8 7 10 10 39 32 38 33 44 55 45 42 46 41 37 35 30 27 28 24 25 21 16 14 12 14 14 9 5 5 4 6 8 9 10 12 16 17 21 22 24
Wind_Direction
241 241 242 247 249 245 248 249 250 252 256 256 258 265 261 258 254 251 253 256 264 259 263 272 276 268 270 279 283 282 279 283 280 278 273 273 277 283 287 295 300 296 298 301
241 241 242 240 242 243 243 247 245 250 254 258 258 256 259 248 246 255 259 259 258 266 272 274 267 268 278 278 278 276 278 271 276 276 269 271 277 285 294 301 303 299 298 302
239 239 237 238 238 240 240 241 243 248 251 249 256 253 253 249 247 253 257 255 255 263 265 264 268 275 278 281 286 287 281 269 261 261 258 266 278 287 297 299 301 299 299 302
235 235 235 235 236 236 237 241 241 244 246 249 251 254 250 243 240 241 246 249 256 263 264 268 274 280 280 280 286 287 271 251 254 256 260 274 281 291 294 295 293 296 300 306
230 230 229 230 232 235 235 235 238 240 242 246 248 254 236 242 237 240 243 256 252 252 260 263 268 275 274 280 283 277 265 259 262 261 273 278 292 294 291 291 297 298 303 306
221 224 224 226 227 229 230 232 233 235 239 241 240 251 235 236 233 230 241 241 235 254 260 268 283 286 276 273 260 258 257 262 260 271 274 292 295 289 293 294 296 297 304 311
223 222 222 222 223 226 226 228 230 232 234 238 236 242 239 214 227 238 237 230 243 260 268 278 283 265 258 253 247 253 257 258 268 272 288 292 291 295 294 298 299 305 307 312
211 215 218 219 218 222 221 224 228 230 234 235 235 237 232 209 233 224 225 235 257 267 271 270 267 260 247 239 249 256 258 263 274 284 291 293 296 296 299 298 302 306 310 318
224 209 215 217 217 217 218 221 223 227 229 228 229 231 232 210 233 210 237 240 228 262 256 271 279 248 233 231 234 257 254 269 282 293 292 296 298 299 297 302 306 308 316 312
254 241 220 221 219 215 213 217 216 221 221 227 224 226 224 208 237 230 235 239 236 255 266 271 275 247 238 236 252 252 269 282 291 292 295 301 299 297 301 304 313 320 320 319
253 258 223 224 226 215 211 211 214 216 220 221 223 222 220 211 215 223 234 199 240 239 253 265 263 248 247 245 249 271 278 285 293 290 298 298 295 302 311 314 315 324 324 309
255 262 245 227 218 210 216 206 210 212 217 217 220 216 218 212 219 235 229 193 228 285 255 262 259 251 241 248 254 272 278 284 290 296 300 299 301 312 313 303 319 323 324 292
245 259 256 263 217 207 213 209 206 210 211 212 215 195 194 177 179 197 183 198 235 293 254 258 247 242 233 242 257 269 272 287 292 297 300 302 312 313 319 334 328 318 313 292
257 268 278 261 206 212 205 209 202 207 207 208 209 190 186 183 195 190 187 206 241 252 246 254 241 233 240 246 257 267 273 290 290 305 313 312 316 317 309 312 313 301 293 185
253 239 258 252 218 214 204 209 199 205 205 206 208 185 174 172 182 187 187 201 216 233 238 236 238 247 245 247 264 264 275 280 297 305 309 316 313 308 294 302 280 293 276 177
228 261 290 200 228 215 207 202 203 203 203 204 204 181 170 178 184 189 204 208 208 210 223 223 242 247 248 247 247 264 278 279 293 306 315 322 318 308 311 282 250 233 254 189
231 249 254 183 207 212 210 203 203 201 202 202 203 176 175 190 191 199 191 217 201 207 220 224 236 237 243 228 211 273 277 281 292 310 324 322 334 349 1 301 278 174 171 171
222 189 159 130 176 199 211 201 204 199 202 203 201 176 194 195 202 211 201 190 196 207 216 217 226 232 219 191 223 269 267 298 300 317 334 354 40 83 68 66 79 118 184 165
46 134 200 295 159 197 203 204 203 192 197 203 183 188 191 194 192 197 199 187 189 211 207 203 209 208 187 187 237 249 262 302 314 349 35 61 92 81 74 70 51 35 157 170
251 277 228 227 41 176 199 187 189 189 196 194 179 188 191 179 192 180 200 197 207 211 208 187 191 182 182 180 146 213 243 326 353 50 54 56 64 74 77 61 75 64 102 161
24 95 43 236 137 154 175 175 184 188 191 185 185 193 194 200 194 187 186 184 197 205 197 197 178 173 170 162 109 125 156 68 33 80 85 60 61 57 73 73 75 58 75 126
49 79 243 217 171 83 167 166 178 181 187 193 192 193 196 188 194 196 194 181 190 194 189 187 187 168 161 160 121 90 134 128 76 69 73 77 70 67 70 70 79 83 94 126
25 67 130 138 171 59 169 175 174 179 195 191 194 190 198 204 202 204 187 183 173 185 184 181 183 170 164 165 149 107 128 156 108 73 64 56 63 74 69 79 105 91 88 114
41 96 37 172 176 103 126 160 174 169 169 190 192 195 190 190 174 185 184 173 181 180 186 184 183 174 171 173 168 146 122 169 128 91 70 70 82 73 85 88 98 92 82 83
55 120 166 359 220 164 142 161 184 203 181 174 186 196 194 193 165 175 182 183 184 188 192 177 184 181 173 177 177 169 142 161 148 109 87 84 97 87 87 93 92 87 75 79
20 34 23 6 316 306 146 160 146 174 198 180 192 178 186 182 183 183 187 184 183 189 194 183 180 181 175 179 182 175 166 164 157 146 110 100 105 102 98 102 101 92 84 81
Height
5687 5692 5710 5729 5730 5729 5732 5735 5740 5748 5752 5754 5759 5758 5765 5771 5772 5773 5778 5781 5785 5783 5787 5785 5783 5781 5779 5779 5777 5775 5775 5775 5775 5775 5772 5773 5771 5769 5768 5766 5763 5760 5755 5751
5672 5688 5707 5708 5704 5714 5720 5724 5734 5737 5740 5746 5748 5748 5751 5760 5763 5763 5770 5775 5776 5778 5777 5775 5774 5773 5771 5770 5769 5768 5768 5767 5767 5767 5766 5765 5763 5762 5759 5757 5754 5752 5748 5745
5657 5680 5685 5684 5692 5699 5707 5712 5724 5725 5730 5736 5733 5736 5745 5753 5755 5760 5759 5766 5766 5769 5768 5767 5766 5764 5763 5762 5761 5759 5759 5760 5760 5761 5761 5760 5758 5755 5753 5750 5748 5745 5742 5740
5645 5661 5663 5667 5677 5682 5693 5704 5710 5713 5719 5723 5727 5723 5734 5746 5749 5750 5755 5755 5759 5760 5760 5759 5757 5757 5756 5755 5754 5752 5751 5752 5753 5755 5755 5755 5753 5750 5748 5746 5742 5739 5737 5734
5639 5637 5640 5652 5663 5668 5687 5689 5695 5701 5708 5712 5718 5720 5731 5737 5739 5746 5748 5751 5753 5752 5752 5752 5752 5750 5749 5748 5746 5746 5745 5746 5748 5750 5750 5748 5747 5744 5742 5739 5736 5733 5731 5730
5613 5613 5623 5639 5646 5656 5670 5676 5680 5690 5696 5695 5715 5718 5720 5730 5736 5738 5740 5742 5744 5745 5744 5745 5744 5744 5742 5741 5740 5741 5742 5743 5744 5745 5744 5742 5740 5738 5736 5734 5732 5729 5727 5724
5596 5602 5616 5623 5636 5643 5653 5660 5667 5678 5679 5696 5709 5709 5718 5725 5729 5728 5732 5736 5738 5738 5738 5739 5738 5737 5735 5735 5735 5737 5738 5739 5740 5739 5738 5736 5734 5732 5731 5730 5727 5724 5721 5718
5590 5598 5608 5612 5621 5629 5636 5647 5656 5667 5674 5690 5697 5696 5708 5722 5719 5723 5728 5731 5734 5733 5733 5732 5732 5731 5730 5731 5732 5733 5735 5736 5735 5734 5731 5730 5728 5727 5726 5724 5722 5718 5715 5713
5583 5590 5595 5601 5610 5616 5627 5634 5652 5655 5663 5674 5685 5693 5702 5715 5714 5720 5723 5727 5728 5730 5728 5727 5727 5726 5726 5728 5729 5731 5732 5731 5730 5728 5727 5726 5724 5723 5722 5719 5717 5714 5712 5710
5582 5587 5594 5595 5594 5605 5619 5630 5634 5644 5652 5662 5677 5683 5692 5709 5710 5713 5716 5721 5725 5724 5723 5724 5724 5723 5725 5726 5728 5728 5727 5726 5725 5724 5722 5721 5721 5719 5718 5714 5712 5710 5709 5707
5576 5576 5585 5584 5589 5602 5610 5616 5624 5633 5643 5657 5669 5677 5688 5704 5707 5709 5711 5716 5719 5718 5720 5721 5722 5722 5723 5724 5724 5724 5723 5723 5722 5721 5720 5719 5718 5715 5713 5710 5709 5708 5706 5706
5571 5570 5571 5577 5581 5588 5594 5604 5612 5619 5636 5650 5660 5671 5689 5694 5698 5703 5707 5710 5714 5714 5716 5718 5718 5718 5720 5721 5721 5720 5720 5720 5719 5718 5717 5716 5714 5712 5710 5708 5707 5706 5705 5705
5566 5565 5567 5571 5574 5581 5583 5594 5603 5613 5627 5641 5653 5672 5679 5686 5691 5696 5702 5705 5707 5710 5713 5714 5715 5716 5717 5718 5718 5718 5718 5717 5716 5715 5714 5712 5710 5710 5707 5705 5704 5704 5704 5705
5561 5563 5563 5566 5565 5568 5575 5582 5595 5605 5619 5636 5646 5664 5671 5680 5687 5689 5697 5702 5705 5708 5709 5711 5712 5714 5715 5716 5716 5715 5716 5715 5713 5713 5711 5709 5708 5706 5705 5703 5703 5702 5703 5704
5558 5559 5557 5557 5559 5559 5569 5577 5586 5596 5613 5625 5640 5658 5665 5675 5679 5685 5691 5698 5702 5705 5706 5708 5711 5712 5713 5714 5714 5713 5713 5712 5712 5711 5709 5707 5705 5703 5702 5701 5702 5702 5702 5703
5554 5554 5552 5553 5555 5558 5565 5573 5579 5590 5602 5616 5631 5651 5659 5662 5669 5677 5684 5693 5699 5702 5704 5706 5708 5710 5711 5711 5711 5711 5711 5711 5710 5709 5707 5705 5702 5701 5700 5699 5699 5700 5701 5702
5551 5551 5550 5551 5553 5557 5563 5569 5576 5587 5599 5613 5627 5646 5652 5654 5664 5670 5676 5689 5696 5699 5702 5704 5707 5708 5709 5709 5709 5709 5709 5709 5709 5707 5705 5703 5701 5700 5699 5698 5697 5699 5701 5701
5548 5548 5547 5548 5551 5555 5559 5566 5577 5589 5602 5609 5622 5643 5641 5649 5659 5661 5670 5682 5691 5694 5699 5703 5705 5706 5707 5707 5708 5707 5708 5708 5708 5706 5703 5701 5700 5700 5699 5698 5697 5699 5699 5700
5547 5547 5545 5543 5550 5555 5561 5569 5576 5585 5598 5607 5625 5628 5637 5647 5654 5655 5663 5675 5685 5692 5696 5700 5703 5704 5705 5706 5707 5706 5707 5708 5707 5705 5704 5701 5700 5700 5699 5698 5698 5697 5698 5699
5546 5547 5546 5545 5546 5553 5560 5565 5571 5585 5598 5611 5618 5622 5632 5640 5641 5651 5666 5676 5680 5687 5696 5699 5700 5701 5703 5704 5705 5706 5706 5707 5706 5705 5705 5703 5701 5700 5700 5699 5698 5697 5697 5697
5547 5547 5547 5547 5548 5555 5555 5560 5569 5587 5598 5604 5610 5617 5627 5637 5641 5652 5662 5670 5678 5686 5694 5695 5697 5699 5701 5703 5704 5705 5707 5706 5706 5707 5706 5705 5703 5702 5700 5699 5698 5697 5697 5698
5549 5548 5549 5550 5551 5555 5556 5564 5574 5585 5593 5598 5606 5614 5626 5633 5642 5647 5656 5664 5674 5683 5688 5692 5696 5697 5699 5702 5703 5705 5707 5706 5707 5707 5707 5707 5706 5704 5702 5700 5699 5698 5698 5699
5551 5550 5550 5552 5553 5555 5559 5562 5575 5586 5592 5596 5606 5615 5623 5629 5637 5641 5643 5661 5669 5679 5685 5689 5694 5695 5697 5700 5703 5706 5707 5707 5707 5707 5708 5708 5708 5707 5704 5702 5702 5701 5701 5702
5553 5553 5553 5554 5554 5551 5553 5572 5576 5584 5587 5599 5605 5613 5621 5628 5635 5642 5652 5660 5669 5675 5683 5687 5692 5694 5697 5700 5703 5706 5707 5708 5708 5708 5709 5709 5709 5709 5708 5707 5706 5705 5703 5703
5554 5556 5557 5555 5553 5555 5562 5568 5577 5579 5589 5590 5601 5612 5621 5630 5631 5643 5651 5659 5667 5674 5679 5685 5690 5693 5697 5699 5702 5705 5707 5708 5708 5709 5709 5710 5711 5711 5711 5710 5711 5710 5708 5706
5557 5556 5556 5556 5556 5558 5563 5570 5570 5578 5584 5593 5604 5609 5620 5628 5635 5643 5650 5657 5665 5671 5678 5683 5686 5692 5696 5699 5701 5703 5707 5708 5709 5709 5711 5712 5713 5713 5714 5714 5716 5715 5714 5714